Regional Weather Roundup
Issued by NWS Grand Forks, ND

Home | Current Version | Previous Version | Graphics & Text | Print | Product List | Glossary On
Versions: 1 2 3 4 5 6 7 8 9 10 11 12 13 14 15 16 17 18 19 20 21 22 23 24 25 26 27 28 29 30 31 32 33 34 35 36 37 38 39 40 41 42 43 44 45 46 47 48 49 50
000
ASUS43 KFGF 240331
RWRFGF
PRAIRIE TO PINES  WEATHER ROUNDUP
NATIONAL WEATHER SERVICE EASTERN NORTH DAKOTA/GRAND FORKS ND
1000 PM CDT MON APR 23 2018

 **SATELLITE DATA USED TO AUGMENT SKY COVER AT AUTOMATED STATIONS**
 *****  WEATHER ACROSS EASTERN NORTH DAKOTA  *****

CITY           SKY/WX    TMP DP  RH WIND       PRES   REMARKS
GRAND FORKS    MOCLDY    49  43  80 NW7       30.20R
GRAND FRKS AFB FAIR      48  37  65 N6        30.21R
GRAND FRKS NWS   N/A     52  38  59 N14       30.18R
DEVILS LAKE    CLOUDY    48  37  65 N8        30.26R
FARGO          FAIR      54  39  57 N10       30.17R
WAHPETON ARPT  CLOUDY    54  39  58 NE13      30.16S
$$

 ***** WEATHER ACROSS CENTRAL AND WESTERN NORTH DAKOTA  *****

CITY           SKY/WX    TMP DP  RH WIND       PRES   REMARKS
BISMARCK       LGT RAIN  51  36  56 N20G29    30.24R
MINOT          CLOUDY    49  24  37 N14       30.30R
JAMESTOWN      CLOUDY    52  39  61 N13       30.19R
MINOT AFB      FAIR      47  26  43 N12       30.29R
GARRISON         N/A     44  38  79 N6        30.30R
WILLISTON      FAIR      44  24  45 N7        30.34R
DICKINSON      RAIN      37  35  92 N22G31    30.27R
HETTINGER      LGT RAIN  41  35  79 N32G41    30.19R
$$

 *****  OTHER AIRPORT OBSERVATIONS IN OUR AREA  *****

CITY           SKY/WX    TMP DP  RH WIND       PRES   REMARKS
WALHALLA       FAIR      45  32  61 NW9       30.24R
GRAFTON AIRPOR FAIR      48  39  71 N7        30.24R
VALLEY CITY AR CLOUDY    52  48  87 N5        30.21R
CANDO          CLOUDY    46  32  57 N13       30.29R
CAVALIER APRT    N/A     50  34  53 NW12      30.23R
GWINNER          N/A     54  43  66 N10       30.17S
SHEYENNE NWR     N/A     57  42  56 NE7       29.95S
ROLLA          CLOUDY    41  30  65 N12       30.29R
 ***** THE ABOVE OBSERVATIONS ARE NON NWS ARE NOT QUALITY
       CONTROLLED AND MAY MIS-REPORT RAIN FOR SNOW...
$$

  *****  WEATHER ACROSS NORTHERN MINNESOTA  *****

CITY           SKY/WX    TMP DP  RH WIND       PRES   REMARKS
FLAG ISLAND    FAIR      45  30  57 NW5       30.17R
WARROAD        FAIR      48  34  57 NW3       30.19R
ROSEAU         FAIR      48  36  61 CALM      30.19R
HALLOCK        FAIR      48  36  61 NW7       30.21R
THF RVR FALLS  FAIR      49  36  61 NW6       30.20R
BAUDETTE       FAIR      47  30  51 NW8       30.16R
WASKISH        FAIR      45  30  57 CALM      30.17R
CROOKSTON      FAIR      46  43  87 N6        30.20S
STEPHEN NDAWN    N/A     50  37  62 N6          N/A
GREENBUSH NDAW   N/A     48  37  66 NW8         N/A
$$
  *****  WEATHER ACROSS CENTRAL AND WEST MINNESOTA  *****

CITY           SKY/WX    TMP DP  RH WIND       PRES   REMARKS
FOSSTON        FAIR      45  36  70 NW3       30.20R
BEMIDJI        FAIR      45  31  56 NW6       30.17R
PARK RAPIDS    FAIR      50  32  50 NW10      30.15R
ELBOW LAKE     FAIR      52  42  68 N8        30.16R
WADENA         FAIR      52  36  54 N5        30.16R
DETROIT LAKES  FAIR      50  34  53 N5        30.19R
MOORHEAD       MOCLDY    54  39  58 NE7       30.19S
FERGUS FALLS   CLOUDY    55  37  50 NE8       30.14R
MORRIS MN      FAIR      57  41  54 CALM      30.14S
STAPLES        MOCLDY    50  37  62 N5        30.15R
$$
  *****  WEATHER ELSEWHERE ACROSS MINNESOTA  *****

CITY           SKY/WX    TMP DP  RH WIND       PRES   REMARKS
DULUTH         FAIR      54  36  50 W6        30.12R
INTRNTL FALLS  FAIR      44  29  55 N5        30.14R
ELY            FAIR      43  28  56 CALM      30.13S
CLOQUET        FAIR      48  34  57 NW5       30.12S
WHEATON        CLOUDY    57  45  62 N7        30.17R
BRAINERD       FAIR      50  34  54 N5        30.13R
HIBBING        FAIR      42  28  57 NW7       30.12R
ALEXANDRIA     CLOUDY    58  40  51 W3        30.15R
SAINT CLOUD    FAIR      48  38  68 CALM      30.13R
MINNEAPOLIS    FAIR      60  40  47 W5        30.13R
$$

  *****  WEATHER ACROSS SOUTH DAKOTA  *****

CITY           SKY/WX    TMP DP  RH WIND       PRES   REMARKS
SIOUX FALLS    FAIR      54  41  61 E8        30.14R
BROOKINGS      MOCLDY    54  42  64 SE8       30.14R
WATERTOWN      CLOUDY    57  42  57 SE8       30.14R
HURON          CLOUDY    60  43  53 SE9       30.11R
SISSETON         N/A     54  47  77 NW6       30.15R
ABERDEEN       CLOUDY    59  47  64 NE17      30.14R
MITCHELL       CLOUDY    58  45  62 SE8       30.12R
PIERRE         CLOUDY    59  41  51 E9        30.04S
MOBRIDGE       CLOUDY    58  43  57 NE16G25   30.10R
RAPID CITY     CLOUDY    41  36  82 NW35G45   30.15R
$$

  *****  SOME WEATHER IN NEARBY STATES *****

CITY           SKY/WX    TMP DP  RH WIND       PRES   REMARKS
GLASGOW MT     FAIR      48  23  37 NE5       30.37R
GREAT FALLS MT FAIR      44  19  36 CALM      30.43R
CHEYENNE WY    CLOUDY    36  33  89 MISG      30.21R
SCOTTSBLUFF NE CLOUDY    42  42 100 NW20G28   30.23R
OMAHA NE       FAIR      61  31  32 E9        30.07R
DES MOINES IA  FAIR      62  29  28 NE3       30.09R
DAVENPORT IA   FAIR      56  32  40 NE9       30.09R
CHICAGO IL     CLOUDY    50  29  44 N10       30.11F
EAU CLAIRE WI  FAIR      53  34  48 SE5       30.13R
LA CROSSE WI   FAIR      54  32  43 CALM      30.11R
$$

  *****  SOME NATIONAL WEATHER *****

CITY           SKY/WX    TMP DP  RH WIND       PRES   REMARKS
LA GUARDIA NY  MOCLDY    51  40  65 S7        30.44S
RALEIGH NC     CLOUDY    59  49  69 E16       30.20F
ATLANTA GA     TSTM      62  61  96 NE16      29.86F
NEW ORLEANS LA MOCLDY    67  57  70 N3        30.00R
OKLAHOMA CITY  FAIR      61  47  59 NE6       30.06R
ALBUQUERQUE NM FAIR      69  21  16 SE7       30.05R
SALT LAKE CITY FAIR      56  30  37 N6        30.15R
LOS ANGELES CA CLOUDY    55  52  89 SW6       29.99R
BOISE ID       FAIR      58  28  32 NW7       30.19S
SEATTLE WA     FAIR      64  34  32 N18       30.20F
$$

*** WEATHER ACROSS MANITOBA...SASKATCHEWAN AND ONTARIO ***
                ***ONTARIO***

CITY           SKY/WX    TMP DP  RH WIND       PRES   REMARKS
GERALDTON      MOCLDY    46  28  49 SW8       30.04R
THUNDER BAY    CLEAR     41  32  70 CALM      30.09R
SIOUX LOOKOUT  PTCLDY    39  28  65 N5        30.15S
TORONTO        CLOUDY    54  19  26 NE3       30.20F
BIG TROUT LK   FLURRIES  30  27  86 NW10      30.08R WCI  21
PICKLE LAKE    NOT AVBL
DRYDEN         PTCLDY    43  28  56 NE6       30.15S
KENORA         PTCLDY    46  30  53 N7        30.16R
$$
                *** MANITOBA***

CITY           SKY/WX    TMP DP  RH WIND       PRES   REMARKS
BRANDON        MOCLDY    36  30  80 NW8       30.30R
DAUPHIN        CLEAR     43  28  56 NW9       30.29R
ISLAND LAKE    FLURRIES  27  23  86 NW13      30.19R WCI  16
PILOT MOUND      N/A     43  28  56 NW9         N/A
THE PAS        PTCLDY    32  23  69 NW7       30.31R
THOMPSON       FLURRIES  21  18  86 N8        30.29R WCI  12
WINNIPEG       PTCLDY    41  32  70 N8        30.23R
LYNN LAKE      CLEAR     23  21  93 W3        30.30R
CHURCHILL      FLURRIES  16  14  93 NW10      30.30R WCI   3
GILLAM         SNOW      19  16  86 N17       30.24R VSB 1/2 WCI   4
$$
                ***SASKATCHEWAN***

CITY           SKY/WX    TMP DP  RH WIND       PRES   REMARKS
ESTEVAN        MOCLDY    36  23  60 N7        30.35R
KINDERSLEY     PTCLDY    46  28  49 W9        30.35S
LLOYDMINSTER   CLEAR     43  28  56 W5        30.30S
PRINCE ALBERT  CLEAR     39  25  56 NE2       30.32S
REGINA         PTCLDY    45  23  42 NE5       30.36R
YORKTON        CLEAR     37  27  65 W8        30.32R
N. BATTLEFORD  CLEAR     45  23  42 W3        30.34S
LA RONGE       CLEAR     36  27  69 S5        30.32R
SASKATOON      CLEAR     46  25  42 NW2       30.35R
SWIFT CURRENT  CLEAR     43  21  42 N5        30.37R
$$
NOTE: THESE ARE AUTOMATED STATIONS WITH LIMITED QUALITY CONTROL
      "FAIR" INDICATES FEW OR NO CLOUDS BELOW 12,000 FEET WITH NO
      SIGNIFICANT WEATHER AND/OR OBSTRUCTIONS TO VISIBILITY.
      SKY/WX - SKY CONDITION AND SIGNIFICANT WEATHER.
      TMP - AIR TEMPERATURE.    DP   - DEWPOINT TEMPERATURE.
      RH  - RELATIVE HUMIDITY.  PRES - PRESSURE.
      HX  - HEAT INDEX.         WCI  - WIND CHILL INDEX.
$



USA.gov is the U.S. government's official web portal to all federal, state and local government web resources and services.